Location: Saint-Hippolyte
(43.6394°N, 4.7559°E)
Time: 13:31:25
(UTC+00:00)

Cosmos 2219 - Pass Details

Date: 24 October 2020
Orbit: 832 x 862 km, 71.1° (Epoch: 24 November)

Event Time Altitude Azimuth Distance (km) Brightness Sun altitude
Rises 17:28:10 0° 341° (NNW) 3,443 6.5 -8.9°
Reaches altitude 10° 17:30:56 10° 352° (N) 2,506 5.7 -9.4°
Maximum altitude 17:36:01 31° 54° (NE) 1,465 4.0 -10.3°
Drops below altitude 10° 17:41:05 10° 116° (ESE) 2,497 5.1 -11.2°
Enters shadow 17:41:25 - 118° (ESE) 2,606 5.2 -11.2°
